JAL2088 ROAH-RJOO

Flight info

Callsign JAL2088
Flight time 1h 35m
Altitude 41000
Route AMAMI Y53 MADOG Y753 IZUMI
Aircraft A359/H-SDE2E3GHIJ1J3J4J5LM1ORWXYZ/LB1D1

Departure

Time 2026-04-17 05:13
Airport Naha International Airport (ROAH)

Arrival

Time 2026-04-17 06:48
Airport Osaka Itami International Airport (RJOO)
Time Latitude Longitude Altitude Speed Heading
2026-04-17 04:55 26.20431 127.64933 28 ft 0 kts 28°
2026-04-17 05:01 26.20427 127.64931 28 ft 2 kts 28°
2026-04-17 05:01 26.20410 127.64921 26 ft 3 kts 22°
2026-04-17 05:02 26.20393 127.64914 26 ft 3 kts
2026-04-17 05:02 26.20375 127.64916 26 ft 3 kts 328°
2026-04-17 05:02 26.20361 127.64930 27 ft 3 kts 294°
2026-04-17 05:02 26.20357 127.64946 26 ft 1 kts 268°
2026-04-17 05:03 26.20357 127.64962 26 ft 3 kts 268°
2026-04-17 05:03 26.20358 127.64981 24 ft 1 kts 268°
2026-04-17 05:03 26.20358 127.64984 25 ft 0 kts 268°
2026-04-17 05:07 26.20358 127.64970 28 ft 5 kts 268°
2026-04-17 05:07 26.20356 127.64913 27 ft 9 kts 268°
2026-04-17 05:08 26.20353 127.64833 28 ft 10 kts 271°
2026-04-17 05:08 26.20399 127.64764 28 ft 13 kts 338°
2026-04-17 05:08 26.20488 127.64752 24 ft 12 kts 358°
2026-04-17 05:08 26.20587 127.64748 24 ft 16 kts 358°
2026-04-17 05:09 26.20708 127.64744 25 ft 19 kts 358°
2026-04-17 05:09 26.20813 127.64737 25 ft 11 kts 356°
2026-04-17 05:09 26.20870 127.64733 25 ft 8 kts 357°
2026-04-17 05:09 26.20901 127.64705 27 ft 7 kts 286°
2026-04-17 05:10 26.20902 127.64657 22 ft 5 kts 268°
2026-04-17 05:10 26.20901 127.64644 22 ft 0 kts 268°
2026-04-17 05:11 26.20901 127.64635 22 ft 4 kts 268°
2026-04-17 05:11 26.20899 127.64584 25 ft 8 kts 268°
2026-04-17 05:11 26.20891 127.64540 28 ft 5 kts 234°
2026-04-17 05:12 26.20862 127.64529 28 ft 5 kts 189°
2026-04-17 05:12 26.20822 127.64529 24 ft 2 kts 178°
2026-04-17 05:12 26.20818 127.64529 24 ft 5 kts 178°
2026-04-17 05:13 26.20633 127.64537 27 ft 62 kts 177°
2026-04-17 05:13 26.19959 127.64569 22 ft 129 kts 178°
2026-04-17 05:13 26.18911 127.64592 381 ft 154 kts 178°
2026-04-17 05:13 26.17871 127.64611 1206 ft 150 kts 177°
2026-04-17 05:14 26.16788 127.64684 1605 ft 162 kts 176°
2026-04-17 05:14 26.15612 127.64763 1840 ft 181 kts 176°
2026-04-17 05:14 26.14244 127.64841 2048 ft 207 kts 177°
2026-04-17 05:14 26.12731 127.64918 2345 ft 228 kts 178°
2026-04-17 05:15 26.11075 127.64997 2676 ft 248 kts 178°
2026-04-17 05:15 26.09330 127.65078 3134 ft 259 kts 179°
2026-04-17 05:15 26.07514 127.65181 3734 ft 265 kts 176°
2026-04-17 05:15 26.05707 127.65682 4356 ft 272 kts 158°
2026-04-17 05:16 26.04167 127.66942 4930 ft 281 kts 130°
2026-04-17 05:16 26.03360 127.68911 5521 ft 285 kts 98°
2026-04-17 05:16 26.03585 127.71078 6129 ft 285 kts 65°
2026-04-17 05:16 26.04742 127.72840 6732 ft 282 kts 40°
2026-04-17 05:17 26.06209 127.74296 7303 ft 284 kts 38°
2026-04-17 05:17 26.07704 127.75750 7906 ft 287 kts 39°
2026-04-17 05:17 26.09197 127.77240 8498 ft 290 kts 39°
2026-04-17 05:17 26.10691 127.78760 9106 ft 293 kts 39°
2026-04-17 05:18 26.12198 127.80309 9738 ft 295 kts 40°
2026-04-17 05:18 26.13688 127.81850 10249 ft 300 kts 40°
2026-04-17 05:18 26.15256 127.83474 10505 ft 315 kts 40°
2026-04-17 05:18 26.16893 127.85173 10734 ft 329 kts 40°
2026-04-17 05:19 26.18594 127.86943 10954 ft 342 kts 40°
2026-04-17 05:19 26.20367 127.88791 11205 ft 353 kts 40°
2026-04-17 05:19 26.22174 127.90677 11592 ft 358 kts 40°
2026-04-17 05:19 26.24008 127.92592 12014 ft 362 kts 41°
2026-04-17 05:20 26.25854 127.94521 12451 ft 366 kts 41°
2026-04-17 05:20 26.27718 127.96470 12890 ft 369 kts 41°
2026-04-17 05:20 26.29595 127.98432 13327 ft 372 kts 41°
2026-04-17 05:20 26.31488 128.00411 13758 ft 374 kts 41°
2026-04-17 05:21 26.33397 128.02409 14116 ft 378 kts 41°
2026-04-17 05:21 26.35324 128.04426 14504 ft 380 kts 41°
2026-04-17 05:21 26.37261 128.06454 14888 ft 383 kts 41°
2026-04-17 05:21 26.39208 128.08494 15257 ft 386 kts 41°
2026-04-17 05:22 26.41143 128.10522 15633 ft 388 kts 41°
2026-04-17 05:22 26.43123 128.12598 16010 ft 391 kts 40°
2026-04-17 05:22 26.45112 128.14685 16383 ft 394 kts 40°
2026-04-17 05:22 26.47118 128.16790 16753 ft 397 kts 40°
2026-04-17 05:23 26.49137 128.18910 17115 ft 399 kts 40°
2026-04-17 05:23 26.51166 128.21042 17493 ft 401 kts 40°
2026-04-17 05:23 26.53207 128.23187 17857 ft 404 kts 40°
2026-04-17 05:23 26.55261 128.25347 18209 ft 407 kts 40°
2026-04-17 05:24 26.57313 128.27543 18509 ft 410 kts 42°
2026-04-17 05:24 26.59300 128.29853 18807 ft 414 kts 44°
2026-04-17 05:24 26.61255 128.32179 19112 ft 416 kts 44°
2026-04-17 05:24 26.63237 128.34548 19415 ft 419 kts 44°
2026-04-17 05:25 26.65232 128.36939 19708 ft 421 kts 44°
2026-04-17 05:25 26.67236 128.39348 20011 ft 424 kts 44°
2026-04-17 05:25 26.69246 128.41770 20306 ft 426 kts 44°
2026-04-17 05:25 26.71269 128.44215 20597 ft 429 kts 44°
2026-04-17 05:26 26.73301 128.46675 20900 ft 431 kts 44°
2026-04-17 05:26 26.75345 128.49156 21184 ft 434 kts 44°
2026-04-17 05:26 26.77395 128.51652 21463 ft 436 kts 44°
2026-04-17 05:26 26.79455 128.54164 21764 ft 439 kts 44°
2026-04-17 05:27 26.81526 128.56694 22045 ft 441 kts 44°
2026-04-17 05:27 26.83579 128.59210 22325 ft 444 kts 44°
2026-04-17 05:27 26.85666 128.61771 22601 ft 446 kts 44°
2026-04-17 05:27 26.87765 128.64353 22876 ft 449 kts 44°
2026-04-17 05:28 26.89875 128.66946 23147 ft 451 kts 45°
2026-04-17 05:28 26.92026 128.69509 23412 ft 453 kts 44°
2026-04-17 05:28 26.94198 128.72079 23660 ft 455 kts 44°
2026-04-17 05:28 26.96381 128.74663 23875 ft 457 kts 44°
2026-04-17 05:29 26.98580 128.77267 24114 ft 459 kts 44°
2026-04-17 05:29 27.00781 128.79879 24347 ft 461 kts 44°
2026-04-17 05:29 27.02992 128.82502 24564 ft 463 kts 44°
2026-04-17 05:29 27.05207 128.85132 24793 ft 465 kts 44°
2026-04-17 05:30 27.07433 128.87776 25026 ft 467 kts 44°
2026-04-17 05:30 27.09665 128.90430 25245 ft 469 kts 44°
2026-04-17 05:30 27.11913 128.93102 25460 ft 471 kts 44°
2026-04-17 05:30 27.14171 128.95788 25697 ft 473 kts 44°
2026-04-17 05:31 27.16430 128.98476 25933 ft 475 kts 44°
2026-04-17 05:31 27.18737 129.01132 26160 ft 475 kts 40°
2026-04-17 05:31 27.21191 129.03525 26400 ft 475 kts 35°
2026-04-17 05:31 27.23809 129.05818 26631 ft 476 kts 34°
2026-04-17 05:32 27.26441 129.08084 26865 ft 478 kts 34°
2026-04-17 05:32 27.29095 129.10367 27108 ft 480 kts 34°
2026-04-17 05:32 27.31757 129.12658 27353 ft 483 kts 34°
2026-04-17 05:32 27.33554 129.14205 27505 ft 484 kts 34°
2026-04-17 05:33 27.36224 129.16507 27753 ft 486 kts 34°
2026-04-17 05:33 27.38899 129.18813 28010 ft 488 kts 34°
2026-04-17 05:33 27.41601 129.21145 28275 ft 490 kts 34°
2026-04-17 05:33 27.44317 129.23491 28530 ft 493 kts 34°
2026-04-17 05:34 27.47045 129.25849 28786 ft 495 kts 34°
2026-04-17 05:34 27.49788 129.28221 29047 ft 497 kts 34°
2026-04-17 05:34 27.52541 129.30603 29289 ft 500 kts 34°
2026-04-17 05:34 27.55303 129.32997 29551 ft 502 kts 34°
2026-04-17 05:35 27.58075 129.35400 29821 ft 505 kts 34°
2026-04-17 05:35 27.60869 129.37827 30083 ft 507 kts 34°
2026-04-17 05:35 27.63662 129.40255 30323 ft 509 kts 34°
2026-04-17 05:35 27.66476 129.42705 30573 ft 511 kts 34°
2026-04-17 05:36 27.69327 129.45112 30823 ft 511 kts 30°
2026-04-17 05:36 27.72351 129.47197 31088 ft 509 kts 25°
2026-04-17 05:36 27.75461 129.49120 31339 ft 510 kts 23°
2026-04-17 05:36 27.78614 129.50957 31599 ft 511 kts 22°
2026-04-17 05:37 27.81799 129.52763 31870 ft 513 kts 21°
2026-04-17 05:37 27.84994 129.54562 32110 ft 514 kts 21°
2026-04-17 05:37 27.88168 129.56356 32347 ft 516 kts 21°
2026-04-17 05:37 27.91381 129.58184 32593 ft 518 kts 21°
2026-04-17 05:38 27.94603 129.60029 32828 ft 520 kts 22°
2026-04-17 05:38 27.97823 129.61882 33051 ft 522 kts 22°
2026-04-17 05:38 28.01075 129.63759 33284 ft 523 kts 22°
2026-04-17 05:38 28.04317 129.65634 33503 ft 525 kts 22°
2026-04-17 05:39 28.07588 129.67526 33719 ft 527 kts 22°
2026-04-17 05:39 28.10852 129.69416 33921 ft 529 kts 22°
2026-04-17 05:39 28.14141 129.71321 34116 ft 531 kts 22°
2026-04-17 05:39 28.17429 129.73226 34300 ft 532 kts 22°
2026-04-17 05:40 28.20733 129.75143 34573 ft 532 kts 22°
2026-04-17 05:40 28.24022 129.77054 34847 ft 532 kts 21°
2026-04-17 05:40 28.27313 129.78966 35119 ft 531 kts 21°
2026-04-17 05:40 28.30602 129.80879 35393 ft 531 kts 21°
2026-04-17 05:41 28.33891 129.82793 35658 ft 531 kts 21°
2026-04-17 05:41 28.37180 129.84716 35949 ft 531 kts 21°
2026-04-17 05:41 28.40481 129.86639 36221 ft 531 kts 21°
2026-04-17 05:41 28.43760 129.88547 36500 ft 531 kts 21°
2026-04-17 05:42 28.47060 129.90469 36782 ft 531 kts 21°
2026-04-17 05:42 28.50303 129.92358 37053 ft 531 kts 21°
2026-04-17 05:42 28.53590 129.94277 37330 ft 531 kts 21°
2026-04-17 05:42 28.56872 129.96194 37633 ft 531 kts 21°
2026-04-17 05:43 28.60163 129.98119 37902 ft 531 kts 21°
2026-04-17 05:43 28.63442 130.00039 38185 ft 531 kts 21°
2026-04-17 05:43 28.66729 130.01964 38448 ft 531 kts 21°
2026-04-17 05:43 28.70014 130.03891 38706 ft 531 kts 21°
2026-04-17 05:44 28.73299 130.05819 38916 ft 531 kts 21°
2026-04-17 05:44 28.76585 130.07748 39132 ft 532 kts 21°
2026-04-17 05:44 28.79880 130.09684 39330 ft 532 kts 21°
2026-04-17 05:44 28.83171 130.11619 39535 ft 532 kts 21°
2026-04-17 05:45 28.86470 130.13559 39739 ft 532 kts 21°
2026-04-17 05:45 28.89756 130.15494 39928 ft 532 kts 21°
2026-04-17 05:45 28.93056 130.17439 40135 ft 532 kts 22°
2026-04-17 05:45 28.96350 130.19381 40317 ft 533 kts 22°
2026-04-17 05:46 28.99649 130.21327 40515 ft 533 kts 22°
2026-04-17 05:46 29.02945 130.23274 40704 ft 533 kts 22°
2026-04-17 05:46 29.06196 130.25195 40894 ft 532 kts 22°
2026-04-17 05:46 29.09491 130.27143 40993 ft 534 kts 22°
2026-04-17 05:47 29.16085 130.31047 40995 ft 534 kts 22°
2026-04-17 05:47 29.22694 130.34965 40995 ft 535 kts 22°
2026-04-17 05:48 29.29302 130.38893 41002 ft 535 kts 22°
2026-04-17 05:48 29.35912 130.42822 41003 ft 535 kts 22°
2026-04-17 05:49 29.42535 130.46762 40997 ft 536 kts 22°
2026-04-17 05:49 29.49111 130.50683 41004 ft 536 kts 22°
2026-04-17 05:50 29.55728 130.54635 40999 ft 536 kts 22°
2026-04-17 05:50 29.62348 130.58594 41002 ft 536 kts 22°
2026-04-17 05:51 29.68973 130.62563 41006 ft 537 kts 22°
2026-04-17 05:51 29.75604 130.66541 41007 ft 537 kts 21°
2026-04-17 05:52 29.82241 130.70528 41009 ft 538 kts 21°
2026-04-17 05:52 29.88882 130.74524 41013 ft 538 kts 21°
2026-04-17 05:53 29.95463 130.78490 41019 ft 538 kts 21°
2026-04-17 05:53 30.02105 130.82505 41023 ft 538 kts 21°
2026-04-17 05:54 30.08742 130.86515 41022 ft 538 kts 21°
2026-04-17 05:54 30.15371 130.90525 41024 ft 538 kts 21°
2026-04-17 05:55 30.22013 130.94550 41029 ft 539 kts 21°
2026-04-17 05:55 30.28662 130.98587 41032 ft 539 kts 21°
2026-04-17 05:56 30.35251 131.02595 41039 ft 539 kts 21°
2026-04-17 05:56 30.41894 131.06642 41047 ft 539 kts 21°
2026-04-17 05:57 30.48428 131.10962 41046 ft 544 kts 27°
2026-04-17 05:57 30.54780 131.15763 41054 ft 545 kts 28°
2026-04-17 05:58 30.61098 131.20647 41042 ft 545 kts 28°
2026-04-17 05:59 30.70528 131.27951 41048 ft 545 kts 28°
2026-04-17 05:59 30.76841 131.32835 41047 ft 545 kts 28°
2026-04-17 06:00 30.83160 131.37729 41059 ft 545 kts 28°
2026-04-17 06:00 30.89481 131.42631 41059 ft 546 kts 28°
2026-04-17 06:01 30.95799 131.47540 41063 ft 546 kts 28°
2026-04-17 06:01 31.02115 131.52456 41064 ft 546 kts 28°
2026-04-17 06:02 31.08432 131.57381 41065 ft 546 kts 28°
2026-04-17 06:02 31.14761 131.62322 41069 ft 547 kts 27°
2026-04-17 06:03 31.21086 131.67269 41077 ft 548 kts 27°
2026-04-17 06:03 31.27421 131.72231 41077 ft 548 kts 27°
2026-04-17 06:04 31.33765 131.77217 41073 ft 549 kts 27°
2026-04-17 06:04 31.40062 131.82156 41078 ft 549 kts 27°
2026-04-17 06:05 31.46409 131.87140 41080 ft 549 kts 27°
2026-04-17 06:05 31.52764 131.92141 41083 ft 550 kts 27°
2026-04-17 06:06 31.59109 131.97146 41082 ft 550 kts 27°
2026-04-17 06:06 31.65455 132.02160 41088 ft 550 kts 27°
2026-04-17 06:07 31.71795 132.07178 41091 ft 550 kts 27°
2026-04-17 06:07 31.78137 132.12206 41091 ft 550 kts 27°
2026-04-17 06:08 31.84453 132.17221 41090 ft 550 kts 27°
2026-04-17 06:08 31.90800 132.22270 41089 ft 551 kts 27°
2026-04-17 06:09 31.97149 132.27329 41094 ft 551 kts 27°
2026-04-17 06:09 32.03496 132.32395 41100 ft 551 kts 27°
2026-04-17 06:10 32.09811 132.37573 41093 ft 557 kts 33°
2026-04-17 06:10 32.15027 132.44373 41104 ft 571 kts 51°
2026-04-17 06:11 32.19368 132.52277 41093 ft 574 kts 55°
2026-04-17 06:11 32.23526 132.60331 41107 ft 575 kts 55°
2026-04-17 06:12 32.27705 132.68418 41100 ft 575 kts 55°
2026-04-17 06:12 32.31905 132.76468 41113 ft 576 kts 54°
2026-04-17 06:13 32.36120 132.84523 41124 ft 576 kts 54°
2026-04-17 06:13 32.40335 132.92592 41109 ft 576 kts 54°
2026-04-17 06:14 32.44537 133.00660 41114 ft 576 kts 54°
2026-04-17 06:14 32.48747 133.08764 41116 ft 576 kts 54°
2026-04-17 06:15 32.52920 133.16813 41118 ft 577 kts 54°
2026-04-17 06:15 32.57116 133.24925 41120 ft 577 kts 54°
2026-04-17 06:16 32.61308 133.33047 41124 ft 578 kts 54°
2026-04-17 06:16 32.65506 133.41198 41127 ft 578 kts 54°
2026-04-17 06:16 32.67583 133.45274 40945 ft 578 kts 55°
2026-04-17 06:17 32.69638 133.49377 40707 ft 579 kts 55°
2026-04-17 06:17 32.70998 133.52111 40548 ft 579 kts 55°
2026-04-17 06:17 32.73046 133.56245 40319 ft 580 kts 55°
2026-04-17 06:17 32.75102 133.60395 40076 ft 581 kts 55°
2026-04-17 06:18 32.77811 133.65861 39370 ft 580 kts 55°
2026-04-17 06:18 32.79862 133.69996 38744 ft 581 kts 55°
2026-04-17 06:18 32.81252 133.72797 38246 ft 582 kts 55°
2026-04-17 06:18 32.83310 133.76952 37570 ft 582 kts 55°
2026-04-17 06:19 32.85356 133.81086 36912 ft 582 kts 54°
2026-04-17 06:19 32.87312 133.85036 36260 ft 581 kts 54°
2026-04-17 06:19 32.89334 133.89123 35575 ft 581 kts 54°
2026-04-17 06:19 32.91390 133.93283 34863 ft 582 kts 54°
2026-04-17 06:20 32.93446 133.97445 34104 ft 582 kts 54°
2026-04-17 06:20 32.95497 134.01602 33224 ft 583 kts 54°
2026-04-17 06:20 32.97549 134.05759 32534 ft 580 kts 55°
2026-04-17 06:20 32.99583 134.09893 31964 ft 575 kts 55°
2026-04-17 06:21 33.01568 134.13936 31404 ft 570 kts 56°
2026-04-17 06:21 33.03563 134.18001 30820 ft 566 kts 56°
2026-04-17 06:21 33.05596 134.21974 30228 ft 558 kts 50°
2026-04-17 06:21 33.08150 134.25389 29636 ft 545 kts 39°
2026-04-17 06:22 33.10907 134.28449 29066 ft 537 kts 36°
2026-04-17 06:22 33.13714 134.31345 28533 ft 530 kts 35°
2026-04-17 06:22 33.16530 134.34159 27996 ft 524 kts 34°
2026-04-17 06:22 33.19316 134.36924 27479 ft 519 kts 35°
2026-04-17 06:23 33.22074 134.39677 26946 ft 514 kts 36°
2026-04-17 06:23 33.24797 134.42420 26418 ft 509 kts 36°
2026-04-17 06:23 33.27489 134.45154 25894 ft 504 kts 37°
2026-04-17 06:23 33.30138 134.47861 25374 ft 499 kts 37°
2026-04-17 06:24 33.32762 134.50552 24853 ft 495 kts 37°
2026-04-17 06:24 33.35362 134.53225 24323 ft 491 kts 38°
2026-04-17 06:24 33.37941 134.55878 23804 ft 486 kts 38°
2026-04-17 06:24 33.40501 134.58513 23215 ft 482 kts 38°
2026-04-17 06:25 33.43025 134.61114 22670 ft 476 kts 38°
2026-04-17 06:25 33.45515 134.63681 22149 ft 470 kts 39°
2026-04-17 06:25 33.47980 134.66223 21615 ft 464 kts 39°
2026-04-17 06:25 33.50418 134.68739 21103 ft 459 kts 39°
2026-04-17 06:26 33.52798 134.71196 20578 ft 455 kts 40°
2026-04-17 06:26 33.55177 134.73654 20070 ft 450 kts 40°
2026-04-17 06:26 33.57547 134.76102 19541 ft 446 kts 40°
2026-04-17 06:26 33.60014 134.78323 19033 ft 442 kts 34°
2026-04-17 06:27 33.62576 134.80357 18724 ft 438 kts 32°
2026-04-17 06:27 33.65160 134.82304 18398 ft 438 kts 31°
2026-04-17 06:27 33.67759 134.84211 18039 ft 435 kts 31°
2026-04-17 06:27 33.70343 134.86091 17712 ft 433 kts 31°
2026-04-17 06:28 33.72906 134.87955 17381 ft 430 kts 31°
2026-04-17 06:28 33.75453 134.89817 17058 ft 426 kts 32°
2026-04-17 06:28 33.77952 134.91652 16737 ft 424 kts 32°
2026-04-17 06:28 33.80449 134.93492 16425 ft 421 kts 32°
2026-04-17 06:29 33.82941 134.95335 16107 ft 418 kts 32°
2026-04-17 06:29 33.85413 134.97169 15793 ft 416 kts 32°
2026-04-17 06:29 33.87902 134.99014 15475 ft 413 kts 32°
2026-04-17 06:29 33.90341 135.00821 15157 ft 411 kts 32°
2026-04-17 06:30 33.92735 135.02596 14863 ft 409 kts 33°
2026-04-17 06:30 33.95182 135.04411 14548 ft 406 kts 33°
2026-04-17 06:30 33.97589 135.06198 14251 ft 404 kts 33°
2026-04-17 06:30 33.99947 135.07949 13940 ft 402 kts 33°
2026-04-17 06:31 34.02321 135.09716 13612 ft 400 kts 33°
2026-04-17 06:31 34.04686 135.11477 13223 ft 398 kts 33°
2026-04-17 06:31 34.07036 135.13228 12904 ft 396 kts 33°
2026-04-17 06:31 34.09372 135.14971 12590 ft 395 kts 33°
2026-04-17 06:32 34.11738 135.16733 12293 ft 393 kts 33°
2026-04-17 06:32 34.14056 135.18464 11991 ft 391 kts 33°
2026-04-17 06:32 34.16371 135.20193 11705 ft 390 kts 33°
2026-04-17 06:32 34.18548 135.21820 11432 ft 389 kts 33°
2026-04-17 06:33 34.20848 135.23538 11140 ft 387 kts 33°
2026-04-17 06:33 34.23126 135.25254 11016 ft 386 kts 34°
2026-04-17 06:33 34.25137 135.27245 10816 ft 370 kts 51°
2026-04-17 06:33 34.26469 135.29795 10570 ft 350 kts 71°
2026-04-17 06:34 34.27358 135.32510 10357 ft 338 kts 72°
2026-04-17 06:34 34.28226 135.35063 10141 ft 328 kts 72°
2026-04-17 06:34 34.29092 135.37572 9942 ft 318 kts 72°
2026-04-17 06:34 34.29933 135.39999 9667 ft 310 kts 72°
2026-04-17 06:35 34.30756 135.42392 9336 ft 305 kts 72°
2026-04-17 06:35 34.31561 135.44747 9012 ft 301 kts 72°
2026-04-17 06:35 34.32351 135.47076 8690 ft 296 kts 72°
2026-04-17 06:35 34.33122 135.49362 8364 ft 291 kts 72°
2026-04-17 06:36 34.33884 135.51650 8002 ft 289 kts 72°
2026-04-17 06:36 34.34609 135.53867 7702 ft 285 kts 72°
2026-04-17 06:36 34.35321 135.56062 7522 ft 272 kts 72°
2026-04-17 06:36 34.35992 135.58111 7241 ft 252 kts 71°
2026-04-17 06:37 34.36620 135.60038 6865 ft 241 kts 71°
2026-04-17 06:37 34.37209 135.61901 6422 ft 234 kts 72°
2026-04-17 06:37 34.37789 135.63760 6065 ft 231 kts 72°
2026-04-17 06:37 34.38437 135.65495 5992 ft 229 kts 60°
2026-04-17 06:38 34.39417 135.67071 5995 ft 231 kts 52°
2026-04-17 06:38 34.40433 135.68544 5994 ft 231 kts 52°
2026-04-17 06:38 34.41474 135.70032 5991 ft 231 kts 52°
2026-04-17 06:38 34.42516 135.71514 5988 ft 232 kts 52°
2026-04-17 06:39 34.43581 135.72998 5701 ft 236 kts 48°
2026-04-17 06:39 34.44961 135.74065 5416 ft 237 kts 20°
2026-04-17 06:39 34.46543 135.74566 5185 ft 235 kts 13°
2026-04-17 06:39 34.48138 135.74951 5013 ft 232 kts 12°
2026-04-17 06:40 34.49731 135.75323 4988 ft 233 kts 12°
2026-04-17 06:40 34.51321 135.75692 4990 ft 233 kts 12°
2026-04-17 06:40 34.52926 135.76062 4989 ft 234 kts 12°
2026-04-17 06:40 34.54464 135.76360 4981 ft 235 kts
2026-04-17 06:41 34.56089 135.76107 4923 ft 238 kts 346°
2026-04-17 06:41 34.57689 135.75524 4601 ft 239 kts 342°
2026-04-17 06:41 34.59215 135.74764 4342 ft 237 kts 329°
2026-04-17 06:41 34.60410 135.73454 4079 ft 234 kts 302°
2026-04-17 06:42 34.60823 135.71644 3988 ft 217 kts 268°
2026-04-17 06:42 34.60686 135.69851 3977 ft 206 kts 257°
2026-04-17 06:42 34.60401 135.68146 3977 ft 206 kts 258°
2026-04-17 06:42 34.60371 135.66415 3880 ft 207 kts 277°
2026-04-17 06:43 34.60936 135.64837 3773 ft 209 kts 308°
2026-04-17 06:43 34.61930 135.63604 3636 ft 199 kts 319°
2026-04-17 06:43 34.62940 135.62487 3522 ft 195 kts 318°
2026-04-17 06:43 34.63911 135.61336 3482 ft 195 kts 316°
2026-04-17 06:44 34.64872 135.60165 3431 ft 196 kts 316°
2026-04-17 06:44 34.65829 135.58995 3197 ft 194 kts 316°
2026-04-17 06:44 34.66781 135.57841 2923 ft 193 kts 316°
2026-04-17 06:44 34.67728 135.56698 2672 ft 190 kts 316°
2026-04-17 06:45 34.68656 135.55572 2408 ft 187 kts 316°
2026-04-17 06:45 34.69553 135.54484 2143 ft 178 kts 316°
2026-04-17 06:45 34.70411 135.53446 1917 ft 170 kts 316°
2026-04-17 06:45 34.71232 135.52451 1691 ft 162 kts 316°
2026-04-17 06:46 34.71999 135.51520 1472 ft 151 kts 316°
2026-04-17 06:46 34.72722 135.50645 1286 ft 141 kts 315°
2026-04-17 06:46 34.73406 135.49815 1100 ft 138 kts 315°
2026-04-17 06:46 34.74091 135.48990 923 ft 138 kts 315°
2026-04-17 06:47 34.74774 135.48168 721 ft 137 kts 313°
2026-04-17 06:47 34.75441 135.47365 500 ft 134 kts 312°
2026-04-17 06:47 34.76106 135.46564 383 ft 134 kts 312°
2026-04-17 06:47 34.76762 135.45756 229 ft 136 kts 313°
2026-04-17 06:48 34.77418 135.44955 61 ft 132 kts 311°
2026-04-17 06:48 34.77983 135.44258 52 ft 91 kts 315°
2026-04-17 06:48 34.78325 135.43848 50 ft 56 kts 315°
2026-04-17 06:48 34.78551 135.43595 49 ft 33 kts 328°
2026-04-17 06:49 34.78728 135.43488 50 ft 21 kts 335°
2026-04-17 06:49 34.78851 135.43429 51 ft 16 kts 348°
2026-04-17 06:49 34.78956 135.43431 51 ft 14 kts 13°
2026-04-17 06:49 34.79037 135.43479 53 ft 13 kts 41°
2026-04-17 06:50 34.79069 135.43596 52 ft 17 kts 93°
2026-04-17 06:50 34.79049 135.43734 55 ft 14 kts 111°
2026-04-17 06:50 34.78999 135.43815 48 ft 9 kts 134°
2026-04-17 06:50 34.78968 135.43857 50 ft 7 kts 121°
2026-04-17 06:51 34.78974 135.43892 47 ft 5 kts 59°
2026-04-17 06:51 34.78995 135.43929 50 ft 5 kts 54°
2026-04-17 06:51 34.79005 135.43946 48 ft 0 kts 53°